Powrót do katalogu

STARLINK-6315

AktywnyŁącznośćVLEO
NORAD 57236·PAYLOAD·🇺🇸 United States

Wystrzelony Jul 7, 2023 z Vandenberg Space Force Base

Loading…

Następne Przeloty (najbliższe 24 godziny)

TLE

ŚwieżeSource: CelesTrak SupGP

Epoka: Sep 14, 2026, 14:22 UTC

1 57236C 23094U   26257.59909722 -.00015956  00000+0 -57813-3 0  2577
2 57236  43.0035  33.1072 0001342 264.6933 339.6408 15.27575372    17

Śledź STARLINK-6315 w czasie rzeczywistym z AllMySat

Download on the App Store